Zurück zum Katalog

NOAA 16 DEB

AktivSSO
NORAD 41203·DEBRIS·🇺🇸 United States

Gestartet Sep 21, 2000 von Vandenberg Space Force Base

Loading…

Nächste Überflüge (nächste 24 Stunden)

TLE

AktuellSource: Space-Track

Epoche: Sep 14, 2026, 13:41 UTC

1 41203U 00055DG  26257.57059359  .00001637  00000-0  77894-3 0  9990
2 41203  98.6851 299.1853 0031493 225.8202 134.0386 14.20488451554496

Verfolge NOAA 16 DEB in Echtzeit mit AllMySat

Download on the App Store